[[{"header":{"parameterUnit":"m.s-1","parameterCategory":1,"la1":30.2991,"la2":30.254,"lo1":-89.0895,"lo2":-89.0444,"dy":0.0017,"dx":0.0017,"nx":28,"ny":28,"refTime":"2024-11-28T03:00:00:Z","depth":0,"parameterNumber":2,"parameterNumberName":"U-component_of_WINDS"},"data":[0,0,0,0,0,0,0,0,0,0,0,0,0,0,0,0,0,0,0,0,0,0,0,0,0,0,0,0,0,0,0,0,0,0,0,0,0,0,0,0,0,0,0,0,0,0,0,0,0,0,0,0,0,0,0,0,0,0,-0.6976,-0.6976,0,-0.7,-0.7,-0.7001,-0.6988,-0.6988,-0.6987,-0.6986,-0.7013,-0.7014,-0.7016,0,0,0,0,0,0,0,0,0,0,0,0,0,-0.6919,-0.692,-0.6976,-0.6976,-0.6976,-0.7,-0.7,-0.7001,-0.6988,-0.6987,-0.6987,-0.6986,-0.7013,-0.7014,-0.7016,0,0,0,0,0,0,0,0,0,0,0,0,0,-0.6944,-0.692,-0.6976,-0.6973,-0.6973,-0.7,-0.7,-0.7001,-0.6988,-0.6987,-0.6986,-0.6986,-0.7012,-0.7014,-0.7016,-0.7048,0,0,-0.7022,-0.7023,0,0,0,0,0,0,0,0,-0.6942,-0.6946,-0.6973,-0.6973,-0.6973,-0.699,-0.699,-0.7017,-0.6989,-0.6983,-0.6986,-0.6985,-0.7006,-0.7009,-0.7015,-0.7049,-0.705,-0.7022,-0.7023,-0.7024,-0.7025,0,0,0,0,0,0,0,-0.694,-0.6945,-0.6985,-0.6973,-0.6974,-0.6971,-0.6973,-0.6995,-0.7,-0.6983,-0.6982,-0.6985,-0.7006,-0.7014,-0.7016,-0.7051,-0.7022,-0.7024,-0.7025,-0.7026,-0.711,-0.7111,0,0,0,0,0,0,-0.6939,-0.6943,-0.6985,-0.6986,-0.6955,-0.6972,-0.6975,-0.6986,-0.6999,-0.7001,-0.6986,-0.6984,-0.7011,-0.7014,-0.7017,-0.7055,-0.7024,-0.7026,-0.7027,-0.7109,-0.711,-0.7112,0,0,0,0,0,0,-0.6938,-0.6943,-0.6984,-0.6964,-0.6969,-0.6974,-0.6986,-0.6987,-0.6994,-0.7002,-0.7002,-0.6993,-0.701,-0.7014,-0.704,-0.7055,-0.7027,-0.7029,-0.7108,-0.711,-0.7111,-0.713,0,0,0,0,0,0,-0.6936,-0.6942,-0.6954,-0.6965,-0.697,-0.7006,-0.6987,-0.6988,-0.6997,-0.6996,-0.7008,-0.7009,-0.701,-0.7037,-0.7042,-0.7058,-0.703,-0.7107,-0.7109,-0.711,-0.7128,-0.7132,-0.7136,0,0,0,0,0,-0.6934,-0.6959,-0.6955,-0.696,-0.6986,-0.7007,-0.701,-0.701,-0.6999,-0.7011,-0.7015,-0.7009,-0.7053,-0.704,-0.7045,-0.7062,-0.7106,-0.7108,-0.711,-0.7127,-0.7132,-0.7136,0,0,0,0,0,0,-0.6952,-0.6961,-0.6956,-0.6986,-0.6995,-0.7005,-0.702,-0.7015,-0.7029,-0.7027,-0.7026,-0.7029,-0.7055,-0.7061,-0.7046,-0.7092,-0.7077,-0.7081,-0.7088,-0.7093,-0.7096,-0.7095,-0.7032,0,0,0,0,0,-0.6959,-0.6975,-0.6982,-0.7008,-0.7013,-0.7016,-0.7025,-0.7023,-0.7034,-0.7038,-0.7045,-0.7056,-0.7072,-0.7082,-0.7098,-0.7129,-0.7131,-0.7143,-0.7146,-0.7149,-0.7153,-0.7169,-0.7174,-0.7119,-0.7119,-0.7119,0,0,-0.6974,-0.6981,-0.6992,-0.7011,-0.7019,-0.7036,-0.7019,-0.7038,-0.7051,-0.7041,-0.7066,-0.7071,-0.7083,-0.7111,-0.7124,-0.7117,-0.7168,-0.7152,-0.7155,-0.7157,-0.7172,-0.7177,-0.7182,-0.7121,-0.7121,-0.712,0,0,-0.7011,-0.7018,-0.7039,-0.7047,-0.7058,-0.7059,-0.7064,-0.7074,-0.7077,-0.7101,-0.7094,-0.7109,-0.7137,-0.7145,-0.7153,-0.7191,-0.7186,-0.7196,-0.7216,-0.7232,-0.7236,-0.724,-0.7254,-0.7258,-0.7199,-0.72,-0.72,0,-0.7029,-0.7054,-0.7051,-0.707,-0.7079,-0.707,-0.7092,-0.7099,-0.7115,-0.7121,-0.7112,-0.7146,-0.7154,-0.7184,-0.7193,-0.7199,-0.7205,-0.7195,-0.7236,-0.724,-0.7243,-0.7256,-0.7261,-0.7201,-0.7201,-0.72,-0.72,0,-0.7075,-0.7093,-0.7109,-0.7123,-0.7133,-0.7154,-0.7154,-0.7165,-0.7162,-0.7164,-0.7189,-0.7197,-0.7213,-0.722,-0.7218,-0.7249,-0.7244,-0.7236,-0.7221,-0.725,-0.7262,-0.7266,-0.7202,-0.7202,-0.7202,-0.7201,0,0,-0.7126,-0.7137,-0.7143,-0.7149,-0.716,-0.7173,-0.7193,-0.7208,-0.7217,-0.7228,-0.7244,-0.7267,-0.7258,-0.7267,-0.7266,-0.728,-0.7309,-0.7269,-0.7269,-0.7276,-0.7343,-0.735,-0.7356,-0.7304,-0.7305,-0.7306,-0.7342,0,-0.7163,-0.7197,-0.7194,-0.7226,-0.7242,-0.7232,-0.7249,-0.7258,-0.726,-0.7274,-0.7276,-0.7292,-0.728,-0.7286,-0.7299,-0.7302,-0.7322,-0.73,-0.732,-0.7321,-0.7318,-0.7362,-0.7369,-0.7403,-0.7347,-0.7348,-0.7348,0,-0.7212,-0.7223,-0.7257,-0.7264,-0.727,-0.7285,-0.7298,-0.7312,-0.7321,-0.7321,-0.733,-0.7326,-0.7345,-0.7329,-0.7356,-0.734,-0.7348,-0.7351,-0.7352,-0.7355,-0.7337,-0.7366,-0.7414,-0.7419,-0.7356,-0.7355,-0.7355,0,-0.7245,-0.7269,-0.7292,-0.7297,-0.7306,-0.7317,-0.7321,-0.7329,-0.7338,-0.7349,-0.7355,-0.7368,-0.7376,-0.7387,-0.7386,-0.7374,-0.7413,-0.7397,-0.7414,-0.7414,-0.7424,-0.7423,-0.7474,-0.7428,-0.7428,-0.7428,-0.7428,0,-0.7288,-0.7309,-0.7306,-0.7321,-0.7343,-0.734,-0.7362,-0.7365,-0.7372,-0.7386,-0.7379,-0.7393,-0.7391,-0.7404,-0.7404,-0.7426,-0.7429,-0.743,-0.743,-0.7431,-0.7431,-0.7437,-0.7435,-0.7429,-0.7429,-0.7428,-0.7428,0,-0.733,-0.7329,-0.7353,-0.7359,-0.7361,-0.7377,-0.7382,-0.7396,-0.7396,-0.7415,-0.7419,-0.742,-0.7436,-0.7436,-0.7454,-0.7453,-0.748,-0.7477,-0.7477,-0.7477,-0.7494,-0.7492,-0.7551,-0.7558,-0.7507,-0.7508,-0.7508,0,-0.7357,-0.7373,-0.738,-0.7389,-0.7393,-0.7408,-0.7416,-0.7413,-0.7422,-0.7432,-0.7444,-0.7459,-0.747,-0.7495,-0.7498,-0.7512,-0.7509,-0.7529,-0.7511,-0.7512,-0.751,-0.7509,-0.751,-0.7532,-0.7533,-0.7533,-0.7534,0,-0.7406,-0.7405,-0.7417,-0.7429,-0.7439,-0.7448,-0.7457,-0.7464,-0.7462,-0.7473,-0.7488,-0.7497,-0.7514,-0.7529,-0.7541,-0.7546,-0.754,-0.7539,-0.7544,-0.7546,-0.7545,-0.7545,-0.7487,-0.7538,-0.7538,-0.7537,-0.7537,-0.7537,-0.7442,-0.7455,-0.7462,-0.7475,-0.7481,-0.7489,-0.7501,-0.7503,-0.7515,-0.7529,-0.7526,-0.7543,-0.755,-0.7566,-0.7572,-0.7585,-0.7578,-0.7585,-0.7587,-0.7589,-0.7591,-0.7542,-0.7587,-0.7587,-0.7587,-0.7587,-0.7587,0,-0.7491,-0.7494,-0.7506,-0.7518,-0.7528,-0.752,-0.7529,-0.7538,-0.7553,-0.756,-0.7571,-0.7588,-0.7602,-0.7605,-0.7618,-0.7628,-0.7625,-0.7631,-0.7631,-0.7632,-0.7596,-0.7591,-0.7633,-0.7633,-0.7633,-0.7633,-0.7633,-0.7633,-0.7517,-0.7539,-0.7537,-0.7561,-0.7564,-0.758,-0.7586,-0.7593,-0.7598,-0.7617,-0.7628,-0.763,-0.7635,-0.7648,-0.766,-0.7661,-0.7666,-0.7673,-0.7673,-0.7639,-0.7635,-0.763,-0.7625,-0.7674,-0.7674,-0.7708,-0.7708,-0.7708]},{"header":{"parameterUnit":"m.s-1","parameterCategory":1,"la1":30.2991,"la2":30.254,"lo1":-89.0895,"lo2":-89.0444,"dy":0.0017,"dx":0.0017,"nx":28,"ny":28,"refTime":"2024-11-28T03:00:00:Z","depth":0,"parameterNumber":3,"parameterNumberName":"V-component_of_WINDS"},"data":[0,0,0,0,0,0,0,0,0,0,0,0,0,0,0,0,0,0,0,0,0,0,0,0,0,0,0,0,0,0,0,0,0,0,0,0,0,0,0,0,0,0,0,0,0,0,0,0,0,0,0,0,0,0,0,0,0,0,-7.0134,-7.0135,0,-7.0234,-7.0235,-7.0236,-7.0183,-7.0181,-7.0178,-7.0175,-7.0272,-7.0277,-7.0282,0,0,0,0,0,0,0,0,0,0,0,0,0,-6.9893,-6.9897,-7.0134,-7.0135,-7.0137,-7.0234,-7.0235,-7.0236,-7.0184,-7.018,-7.0177,-7.0174,-7.027,-7.0276,-7.0282,0,0,0,0,0,0,0,0,0,0,0,0,0,-6.9995,-6.9899,-7.0134,-7.0122,-7.0122,-7.0233,-7.0235,-7.0237,-7.0184,-7.018,-7.0176,-7.0173,-7.0268,-7.0276,-7.0283,-7.041,0,0,-7.0306,-7.031,0,0,0,0,0,0,0,0,-6.999,-7.0004,-7.0123,-7.0123,-7.0123,-7.0192,-7.0185,-7.0295,-7.0185,-7.0161,-7.0175,-7.0171,-7.0248,-7.0257,-7.0285,-7.0415,-7.0419,-7.0307,-7.0312,-7.0315,-7.0317,0,0,0,0,0,0,0,-6.9983,-7.0,-7.0173,-7.0124,-7.0125,-7.011,-7.012,-7.0206,-7.0225,-7.0162,-7.0159,-7.0172,-7.0248,-7.0277,-7.0286,-7.042,-7.0307,-7.0314,-7.0318,-7.0321,-7.0659,-7.0663,0,0,0,0,0,0,-6.9977,-6.9994,-7.017,-7.0176,-7.0045,-7.0118,-7.0129,-7.0174,-7.0224,-7.0228,-7.0175,-7.0169,-7.0266,-7.0278,-7.029,-7.0442,-7.0315,-7.0322,-7.0326,-7.0655,-7.066,-7.0665,0,0,0,0,0,0,-6.9972,-6.9993,-7.0166,-7.0084,-7.0105,-7.0126,-7.0177,-7.0178,-7.0208,-7.0234,-7.0237,-7.0202,-7.0264,-7.0279,-7.0381,-7.0444,-7.0325,-7.0332,-7.065,-7.0657,-7.0663,-7.0747,0,0,0,0,0,0,-6.9965,-6.9992,-7.0041,-7.0086,-7.011,-7.0258,-7.0181,-7.0183,-7.0222,-7.0215,-7.026,-7.0264,-7.0262,-7.037,-7.0389,-7.0453,-7.0338,-7.0644,-7.0653,-7.0661,-7.0739,-7.0756,-7.0771,0,0,0,0,0,-6.9957,-7.006,-7.0044,-7.0066,-7.0173,-7.0262,-7.0275,-7.0272,-7.0227,-7.0276,-7.0293,-7.0262,-7.0435,-7.0381,-7.0401,-7.0469,-7.064,-7.065,-7.066,-7.0732,-7.0753,-7.077,0,0,0,0,0,0,-7.002,-7.0066,-7.0049,-7.017,-7.0213,-7.0253,-7.0315,-7.0294,-7.0349,-7.034,-7.0332,-7.0343,-7.0449,-7.0469,-7.0408,-7.0594,-7.053,-7.0545,-7.0578,-7.0598,-7.0613,-7.0606,-7.0345,0,0,0,0,0,-7.0049,-7.0119,-7.0154,-7.0257,-7.028,-7.0294,-7.0332,-7.0327,-7.037,-7.0387,-7.0411,-7.0453,-7.0516,-7.0558,-7.0617,-7.0741,-7.075,-7.0798,-7.0814,-7.0827,-7.0839,-7.0906,-7.0928,-7.0698,-7.0698,-7.0697,0,0,-7.0107,-7.0141,-7.0185,-7.0271,-7.0303,-7.0375,-7.0309,-7.0387,-7.044,-7.0398,-7.0497,-7.0516,-7.0561,-7.0675,-7.0726,-7.0695,-7.0905,-7.0839,-7.0849,-7.0855,-7.0919,-7.094,-7.096,-7.0704,-7.0703,-7.0702,0,0,-7.0251,-7.0284,-7.0374,-7.0408,-7.0459,-7.0468,-7.0489,-7.0533,-7.0545,-7.0644,-7.0614,-7.0675,-7.0785,-7.0819,-7.085,-7.1008,-7.0981,-7.1027,-7.111,-7.1175,-7.1193,-7.1209,-7.1265,-7.1286,-7.1039,-7.104,-7.104,0,-7.0317,-7.0426,-7.0422,-7.0503,-7.0542,-7.0509,-7.0599,-7.0632,-7.0699,-7.0725,-7.0689,-7.0827,-7.0855,-7.0976,-7.1015,-7.1041,-7.1065,-7.1022,-7.1191,-7.1207,-7.1222,-7.1276,-7.1297,-7.1045,-7.1044,-7.1044,-7.1043,0,-7.0505,-7.058,-7.0646,-7.0714,-7.0759,-7.0845,-7.0853,-7.0899,-7.0889,-7.0901,-7.1002,-7.1035,-7.1101,-7.1129,-7.1119,-7.1249,-7.1228,-7.1192,-7.1127,-7.125,-7.13,-7.132,-7.1053,-7.1051,-7.1049,-7.1048,0,0,-7.0691,-7.0757,-7.0781,-7.0812,-7.0866,-7.0923,-7.1006,-7.1072,-7.1112,-7.1159,-7.1228,-7.1322,-7.1289,-7.1325,-7.1318,-7.1376,-7.1498,-7.1332,-7.1333,-7.1362,-7.1643,-7.167,-7.1694,-7.1481,-7.1485,-7.1488,-7.1639,0,-7.0839,-7.0987,-7.0986,-7.1122,-7.1191,-7.1162,-7.1234,-7.1274,-7.1287,-7.1346,-7.136,-7.1427,-7.1378,-7.14,-7.1455,-7.1472,-7.1555,-7.1461,-7.1544,-7.1547,-7.1534,-7.172,-7.1749,-7.1891,-7.1659,-7.1662,-7.1665,0,-7.1031,-7.1087,-7.1231,-7.1275,-7.1304,-7.1369,-7.143,-7.1487,-7.1531,-7.1537,-7.1578,-7.1563,-7.1646,-7.1579,-7.1692,-7.1628,-7.1662,-7.1675,-7.1681,-7.1688,-7.1613,-7.1733,-7.1936,-7.1957,-7.1695,-7.1693,-7.1691,0,-7.1153,-7.1264,-7.1364,-7.1391,-7.1445,-7.1492,-7.1516,-7.1556,-7.1596,-7.1649,-7.1675,-7.1736,-7.1769,-7.1815,-7.1817,-7.1768,-7.1931,-7.1864,-7.1937,-7.1938,-7.1973,-7.1971,-7.2184,-7.1995,-7.1995,-7.1994,-7.1994,0,-7.1319,-7.1408,-7.142,-7.1482,-7.158,-7.1578,-7.1675,-7.1694,-7.1731,-7.1795,-7.1771,-7.1831,-7.1829,-7.189,-7.1891,-7.1984,-7.1999,-7.2005,-7.2005,-7.2008,-7.2007,-7.203,-7.202,-7.2,-7.1999,-7.1997,-7.1996,0,-7.1472,-7.1484,-7.1592,-7.1634,-7.1647,-7.1718,-7.1753,-7.1811,-7.1823,-7.1904,-7.1923,-7.194,-7.201,-7.2016,-7.2096,-7.2097,-7.2211,-7.2199,-7.2197,-7.2195,-7.2268,-7.2261,-7.2503,-7.2535,-7.2324,-7.2326,-7.2328,0,-7.1577,-7.1645,-7.1696,-7.1738,-7.1766,-7.1833,-7.1875,-7.1875,-7.1918,-7.1974,-7.2025,-7.2093,-7.2148,-7.2261,-7.2279,-7.2341,-7.233,-7.2411,-7.2339,-7.234,-7.2332,-7.2328,-7.2334,-7.2425,-7.2427,-7.2429,-7.2431,0,-7.1762,-7.1765,-7.1827,-7.1891,-7.1942,-7.1992,-7.2038,-7.2073,-7.2079,-7.2129,-7.2201,-7.2244,-7.2327,-7.2394,-7.2455,-7.2477,-7.2455,-7.2453,-7.2473,-7.2477,-7.2473,-7.2477,-7.2235,-7.2448,-7.2446,-7.2445,-7.2444,-7.2443,-7.1894,-7.1954,-7.1999,-7.2069,-7.2104,-7.2149,-7.2206,-7.2225,-7.2286,-7.2355,-7.2351,-7.2431,-7.2472,-7.2551,-7.2578,-7.264,-7.2612,-7.2641,-7.2649,-7.2656,-7.2664,-7.2464,-7.265,-7.265,-7.2649,-7.2649,-7.2649,0,-7.2079,-7.2107,-7.2171,-7.2238,-7.2293,-7.2269,-7.2319,-7.2366,-7.2437,-7.2479,-7.2534,-7.2617,-7.2682,-7.2706,-7.277,-7.2814,-7.2805,-7.2831,-7.2827,-7.2833,-7.2685,-7.2661,-7.2837,-7.2837,-7.2837,-7.2837,-7.2837,-7.2837,-7.2181,-7.2281,-7.2289,-7.2405,-7.2432,-7.2512,-7.2543,-7.2583,-7.2616,-7.2711,-7.2766,-7.2782,-7.2816,-7.2882,-7.2941,-7.2946,-7.297,-7.3,-7.3001,-7.2862,-7.2843,-7.2825,-7.2803,-7.3006,-7.3006,-7.3144,-7.3146,-7.3147]}]]